owner,sensor,date,latitude,longitude,vertical_datum,direction_of_sea_water_velocity,sea_water_speed,upward_sea_water_velocity,qcFlag 
COMPS,ioos:station:USF.COMPS:C10:1,2012-11-02T02:00:00Z,27.1690,-82.9260,4.0,120.96375653207,5.8309518948453,-99999.0,'1111122,1111122,1199999999' 
COMPS,ioos:station:USF.COMPS:C10:1,2012-11-02T03:00:00Z,27.1690,-82.9260,4.0,141.34019174591,6.4031242374328,-99999.0,'1111122,1111122,1199999999' 
COMPS,ioos:station:USF.COMPS:C10:1,2012-11-02T04:00:00Z,27.1690,-82.9260,4.0,140.19442890773,7.8102496759067,-99999.0,'1111122,1111122,1199999999' 
COMPS,ioos:station:USF.COMPS:C10:1,2012-11-02T05:00:00Z,27.1690,-82.9260,4.0,153.43494882292,11.180339887499,-99999.0,'1111122,1111122,1199999999' 
COMPS,ioos:station:USF.COMPS:C10:1,2012-11-02T06:00:00Z,27.1690,-82.9260,4.0,180.0,12.0,-99999.0,'1111122,1111122,1199999999' 
COMPS,ioos:station:USF.COMPS:C10:1,2012-11-02T07:00:00Z,27.1690,-82.9260,4.0,188.74616226256,13.152946437966,-99999.0,'1111122,1111122,1199999999' 
COMPS,ioos:station:USF.COMPS:C10:1,2012-11-02T08:00:00Z,27.1690,-82.9260,4.0,199.9831065219,11.70469991072,-99999.0,'1111122,1111122,1199999999' 
COMPS,ioos:station:USF.COMPS:C10:1,2012-11-02T09:00:00Z,27.1690,-82.9260,4.0,204.44395478042,12.083045973595,-99999.0,'1111122,1111122,1199999999' 
COMPS,ioos:station:USF.COMPS:C10:1,2012-11-02T10:00:00Z,27.1690,-82.9260,4.0,209.05460409908,10.295630140987,-99999.0,'1111122,1111122,1199999999' 
COMPS,ioos:station:USF.COMPS:C10:1,2012-11-02T11:00:00Z,27.1690,-82.9260,4.0,215.53767779197,8.6023252670426,-99999.0,'1111122,1111122,1199999999' 
COMPS,ioos:station:USF.COMPS:C10:1,2012-11-02T12:00:00Z,27.1690,-82.9260,4.0,180.0,2.0,-99999.0,'1111122,1111122,1199999999' 
COMPS,ioos:station:USF.COMPS:C10:1,2012-11-02T13:00:00Z,27.1690,-82.9260,4.0,180.0,2.0,-99999.0,'1111122,1111122,1199999999' 
COMPS,ioos:station:USF.COMPS:C10:1,2012-11-02T15:00:00Z,27.1690,-82.9260,4.0,108.43494882292,6.3245553203368,-99999.0,'1111122,1111122,1199999999' 
COMPS,ioos:station:USF.COMPS:C10:1,2012-11-02T16:00:00Z,27.1690,-82.9260,4.0,90.0,3.0,-99999.0,'1111122,1111122,1199999999' 
COMPS,ioos:station:USF.COMPS:C10:1,2012-11-02T17:00:00Z,27.1690,-82.9260,4.0,153.43494882292,2.2360679774998,-99999.0,'1111122,1111122,1199999999' 
COMPS,ioos:station:USF.COMPS:C10:1,2012-11-02T18:00:00Z,27.1690,-82.9260,4.0,0.0,0.0,-99999.0,'1114422,1114422,1199999999' 
COMPS,ioos:station:USF.COMPS:C10:1,2012-11-02T19:00:00Z,27.1690,-82.9260,4.0,180.0,1.0,-99999.0,'1113322,1111122,1199999999' 
COMPS,ioos:station:USF.COMPS:C10:1,2012-11-02T20:00:00Z,27.1690,-82.9260,4.0,191.30993247402,5.0990195135928,-99999.0,'1111122,1111122,1199999999' 
COMPS,ioos:station:USF.COMPS:C10:1,2012-11-02T21:00:00Z,27.1690,-82.9260,4.0,206.56505117708,2.2360679774998,-99999.0,'1111122,1111122,1199999999' 
COMPS,ioos:station:USF.COMPS:C10:1,2012-11-02T22:00:00Z,27.1690,-82.9260,4.0,225.0,1.4142135623731,-99999.0,'1111122,1111122,1199999999' 
COMPS,ioos:station:USF.COMPS:C10:1,2012-11-02T23:00:00Z,27.1690,-82.9260,4.0,231.34019174591,6.4031242374328,-99999.0,'1111122,1111122,1199999999' 
COMPS,ioos:station:USF.COMPS:C10:1,2012-11-03T00:00:00Z,27.1690,-82.9260,4.0,213.69006752598,3.605551275464,-99999.0,'1111122,1111122,1199999999' 
COMPS,ioos:station:USF.COMPS:C10:1,2012-11-03T01:00:00Z,27.1690,-82.9260,4.0,180.0,3.0,-99999.0,'1111122,1111122,1199999999' 
COMPS,ioos:station:USF.COMPS:C10:1,2012-11-03T02:00:00Z,27.1690,-82.9260,4.0,153.43494882292,2.2360679774998,-99999.0,'1111122,1111122,1199999999' 
COMPS,ioos:station:USF.COMPS:C10:1,2012-11-03T03:00:00Z,27.1690,-82.9260,4.0,143.13010235416,5.0,-99999.0,'1111122,1111122,1199999999' 
COMPS,ioos:station:USF.COMPS:C10:1,2012-11-03T04:00:00Z,27.1690,-82.9260,4.0,170.53767779197,6.0827625302982,-99999.0,'1111122,1111122,1199999999' 
COMPS,ioos:station:USF.COMPS:C10:1,2012-11-03T05:00:00Z,27.1690,-82.9260,4.0,156.80140948635,7.6157731058639,-99999.0,'1111122,1111122,1199999999' 
COMPS,ioos:station:USF.COMPS:C10:1,2012-11-03T06:00:00Z,27.1690,-82.9260,4.0,167.47119229085,9.2195444572929,-99999.0,'1111122,1111122,1199999999' 
COMPS,ioos:station:USF.COMPS:C10:1,2012-11-03T07:00:00Z,27.1690,-82.9260,4.0,180.0,12.0,-99999.0,'1111122,1111122,1199999999' 
COMPS,ioos:station:USF.COMPS:C10:1,2012-11-03T08:00:00Z,27.1690,-82.9260,4.0,184.76364169073,12.041594578792,-99999.0,'1111122,1111122,1199999999' 
COMPS,ioos:station:USF.COMPS:C10:1,2012-11-03T09:00:00Z,27.1690,-82.9260,4.0,184.76364169073,12.041594578792,-99999.0,'1111122,1111122,1199999999' 
COMPS,ioos:station:USF.COMPS:C10:1,2012-11-03T10:00:00Z,27.1690,-82.9260,4.0,199.9831065219,11.70469991072,-99999.0,'1111122,1111122,1199999999' 
COMPS,ioos:station:USF.COMPS:C10:1,2012-11-03T11:00:00Z,27.1690,-82.9260,4.0,206.56505117708,11.180339887499,-99999.0,'1111122,1111122,1199999999' 
COMPS,ioos:station:USF.COMPS:C10:1,2012-11-03T12:00:00Z,27.1690,-82.9260,4.0,213.69006752598,3.605551275464,-99999.0,'1111122,1111122,1199999999' 
COMPS,ioos:station:USF.COMPS:C10:1,2012-11-03T13:00:00Z,27.1690,-82.9260,4.0,180.0,2.0,-99999.0,'1111122,1111122,1199999999' 
COMPS,ioos:station:USF.COMPS:C10:1,2012-11-03T14:00:00Z,27.1690,-82.9260,4.0,135.0,1.4142135623731,-99999.0,'1111122,1111122,1199999999' 
COMPS,ioos:station:USF.COMPS:C10:1,2012-11-03T15:00:00Z,27.1690,-82.9260,4.0,108.43494882292,3.1622776601684,-99999.0,'1111122,1111122,1199999999' 
COMPS,ioos:station:USF.COMPS:C10:1,2012-11-03T16:00:00Z,27.1690,-82.9260,4.0,111.80140948635,5.3851648071345,-99999.0,'1111122,1111122,1199999999' 
COMPS,ioos:station:USF.COMPS:C10:1,2012-11-03T17:00:00Z,27.1690,-82.9260,4.0,120.96375653207,5.8309518948453,-99999.0,'1111122,1111122,1199999999' 
COMPS,ioos:station:USF.COMPS:C10:1,2012-11-03T18:00:00Z,27.1690,-82.9260,4.0,135.0,4.2426406871193,-99999.0,'1111122,1111122,1199999999' 
COMPS,ioos:station:USF.COMPS:C10:1,2012-11-03T19:00:00Z,27.1690,-82.9260,4.0,165.96375653207,4.1231056256177,-99999.0,'1111122,1111122,1199999999' 
COMPS,ioos:station:USF.COMPS:C10:1,2012-11-03T20:00:00Z,27.1690,-82.9260,4.0,165.96375653207,4.1231056256177,-99999.0,'1111122,1111122,1199999999' 
COMPS,ioos:station:USF.COMPS:C10:1,2012-11-03T21:00:00Z,27.1690,-82.9260,4.0,180.0,2.0,-99999.0,'1111122,1111122,1199999999' 
COMPS,ioos:station:USF.COMPS:C10:1,2012-11-03T22:00:00Z,27.1690,-82.9260,4.0,213.69006752598,3.605551275464,-99999.0,'1111122,1111122,1199999999' 
COMPS,ioos:station:USF.COMPS:C10:1,2012-11-03T23:00:00Z,27.1690,-82.9260,4.0,194.03624346793,4.1231056256177,-99999.0,'1111122,1111122,1199999999' 
COMPS,ioos:station:USF.COMPS:C10:1,2012-11-04T00:00:00Z,27.1690,-82.9260,4.0,180.0,3.0,-99999.0,'1111122,1111122,1199999999' 
COMPS,ioos:station:USF.COMPS:C10:1,2012-11-04T01:00:00Z,27.1690,-82.9260,4.0,194.03624346793,4.1231056256177,-99999.0,'1111122,1111122,1199999999' 
COMPS,ioos:station:USF.COMPS:C10:1,2012-11-04T02:00:00Z,27.1690,-82.9260,4.0,161.56505117708,3.1622776601684,-99999.0,'1111122,1111122,1199999999' 
COMPS,ioos:station:USF.COMPS:C10:1,2012-11-04T03:00:00Z,27.1690,-82.9260,4.0,116.56505117708,2.2360679774998,-99999.0,'1111122,1111122,1199999999' 
COMPS,ioos:station:USF.COMPS:C10:1,2012-11-04T04:00:00Z,27.1690,-82.9260,4.0,146.30993247402,3.605551275464,-99999.0,'1111122,1111122,1199999999' 
COMPS,ioos:station:USF.COMPS:C10:1,2012-11-04T05:00:00Z,27.1690,-82.9260,4.0,165.96375653207,4.1231056256177,-99999.0,'1111122,1111122,1199999999' 
COMPS,ioos:station:USF.COMPS:C10:1,2012-11-04T06:00:00Z,27.1690,-82.9260,4.0,180.0,5.0,-99999.0,'1111122,1111122,1199999999' 
COMPS,ioos:station:USF.COMPS:C10:1,2012-11-04T07:00:00Z,27.1690,-82.9260,4.0,180.0,4.0,-99999.0,'1111122,1111122,1199999999' 
COMPS,ioos:station:USF.COMPS:C10:1,2012-11-04T08:00:00Z,27.1690,-82.9260,4.0,189.46232220803,6.0827625302982,-99999.0,'1111122,1111122,1199999999' 
COMPS,ioos:station:USF.COMPS:C10:1,2012-11-04T09:00:00Z,27.1690,-82.9260,4.0,206.56505117708,6.7082039324994,-99999.0,'1111122,1111122,1199999999' 
COMPS,ioos:station:USF.COMPS:C10:1,2012-11-04T10:00:00Z,27.1690,-82.9260,4.0,206.56505117708,6.7082039324994,-99999.0,'1111122,1111122,1199999999' 
COMPS,ioos:station:USF.COMPS:C10:1,2012-11-04T11:00:00Z,27.1690,-82.9260,4.0,218.65980825409,6.4031242374328,-99999.0,'1111122,1111122,1199999999' 
COMPS,ioos:station:USF.COMPS:C10:1,2012-11-04T12:00:00Z,27.1690,-82.9260,4.0,255.96375653207,4.1231056256177,-99999.0,'1111122,1111122,1199999999' 
COMPS,ioos:station:USF.COMPS:C10:1,2012-11-04T13:00:00Z,27.1690,-82.9260,4.0,270.0,2.0,-99999.0,'1111122,1111122,1199999999' 
COMPS,ioos:station:USF.COMPS:C10:1,2012-11-04T14:00:00Z,27.1690,-82.9260,4.0,315.0,2.8284271247462,-99999.0,'1111122,1111122,1199999999' 
COMPS,ioos:station:USF.COMPS:C10:1,2012-11-04T16:00:00Z,27.1690,-82.9260,4.0,0.0,3.0,-99999.0,'1111122,1114422,1199999999' 
COMPS,ioos:station:USF.COMPS:C10:1,2012-11-04T17:00:00Z,27.1690,-82.9260,4.0,45.0,5.6568542494924,-99999.0,'1111122,1111122,1199999999' 
COMPS,ioos:station:USF.COMPS:C10:1,2012-11-04T18:00:00Z,27.1690,-82.9260,4.0,45.0,4.2426406871193,-99999.0,'1111122,1111122,1199999999' 
COMPS,ioos:station:USF.COMPS:C10:1,2012-11-04T19:00:00Z,27.1690,-82.9260,4.0,63.434948822922,4.4721359549996,-99999.0,'1111122,1111122,1199999999' 
COMPS,ioos:station:USF.COMPS:C10:1,2012-11-04T20:00:00Z,27.1690,-82.9260,4.0,71.565051177078,3.1622776601684,-99999.0,'1111122,1111122,1199999999' 
COMPS,ioos:station:USF.COMPS:C10:1,2012-11-04T21:00:00Z,27.1690,-82.9260,4.0,90.0,1.0,-99999.0,'1113322,1111122,1199999999' 
COMPS,ioos:station:USF.COMPS:C10:1,2012-11-04T22:00:00Z,27.1690,-82.9260,4.0,90.0,1.0,-99999.0,'1113322,1111122,1199999999' 
COMPS,ioos:station:USF.COMPS:C10:1,2012-11-04T23:00:00Z,27.1690,-82.9260,4.0,0.0,1.0,-99999.0,'1113322,1114422,1199999999' 
COMPS,ioos:station:USF.COMPS:C10:1,2012-11-05T00:00:00Z,27.1690,-82.9260,4.0,45.0,1.4142135623731,-99999.0,'1111122,1111122,1199999999' 
COMPS,ioos:station:USF.COMPS:C10:1,2012-11-05T01:00:00Z,27.1690,-82.9260,4.0,56.30993247402,3.605551275464,-99999.0,'1111122,1111122,1199999999' 
COMPS,ioos:station:USF.COMPS:C10:1,2012-11-05T02:00:00Z,27.1690,-82.9260,4.0,53.130102354156,5.0,-99999.0,'1111122,1111122,1199999999' 
COMPS,ioos:station:USF.COMPS:C10:1,2012-11-05T03:00:00Z,27.1690,-82.9260,4.0,71.565051177078,6.3245553203368,-99999.0,'1111122,1111122,1199999999' 
COMPS,ioos:station:USF.COMPS:C10:1,2012-11-05T04:00:00Z,27.1690,-82.9260,4.0,82.874983651098,8.0622577482985,-99999.0,'1111122,1111122,1199999999' 
COMPS,ioos:station:USF.COMPS:C10:1,2012-11-05T05:00:00Z,27.1690,-82.9260,4.0,98.130102354156,7.0710678118655,-99999.0,'1111122,1111122,1199999999' 
COMPS,ioos:station:USF.COMPS:C10:1,2012-11-05T06:00:00Z,27.1690,-82.9260,4.0,108.43494882292,9.4868329805051,-99999.0,'1111122,1111122,1199999999' 
COMPS,ioos:station:USF.COMPS:C10:1,2012-11-05T07:00:00Z,27.1690,-82.9260,4.0,135.0,8.4852813742386,-99999.0,'1111122,1111122,1199999999' 
COMPS,ioos:station:USF.COMPS:C10:1,2012-11-05T08:00:00Z,27.1690,-82.9260,4.0,146.30993247402,10.816653826392,-99999.0,'1111122,1111122,1199999999' 
COMPS,ioos:station:USF.COMPS:C10:1,2012-11-05T09:00:00Z,27.1690,-82.9260,4.0,151.38954033403,12.529964086142,-99999.0,'1111122,1111122,1199999999' 
COMPS,ioos:station:USF.COMPS:C10:1,2012-11-05T10:00:00Z,27.1690,-82.9260,4.0,170.53767779197,12.165525060596,-99999.0,'1111122,1111122,1199999999' 
COMPS,ioos:station:USF.COMPS:C10:1,2012-11-05T11:00:00Z,27.1690,-82.9260,4.0,180.0,11.0,-99999.0,'1111122,1111122,1199999999' 
COMPS,ioos:station:USF.COMPS:C10:1,2012-11-05T12:00:00Z,27.1690,-82.9260,4.0,174.2894068625,10.049875621121,-99999.0,'1111122,1111122,1199999999' 
COMPS,ioos:station:USF.COMPS:C10:1,2012-11-05T13:00:00Z,27.1690,-82.9260,4.0,180.0,7.0,-99999.0,'1111122,1111122,1199999999' 
COMPS,ioos:station:USF.COMPS:C10:1,2012-11-05T14:00:00Z,27.1690,-82.9260,4.0,180.0,4.0,-99999.0,'1111122,1111122,1199999999' 
COMPS,ioos:station:USF.COMPS:C10:1,2012-11-05T15:00:00Z,27.1690,-82.9260,4.0,180.0,1.0,-99999.0,'1113322,1111122,1199999999' 
COMPS,ioos:station:USF.COMPS:C10:1,2012-11-05T16:00:00Z,27.1690,-82.9260,4.0,116.56505117708,4.4721359549996,-99999.0,'1111122,1111122,1199999999' 
COMPS,ioos:station:USF.COMPS:C10:1,2012-11-05T17:00:00Z,27.1690,-82.9260,4.0,135.0,5.6568542494924,-99999.0,'1111122,1111122,1199999999' 
COMPS,ioos:station:USF.COMPS:C10:1,2012-11-05T18:00:00Z,27.1690,-82.9260,4.0,149.03624346793,5.8309518948453,-99999.0,'1111122,1111122,1199999999' 
COMPS,ioos:station:USF.COMPS:C10:1,2012-11-05T19:00:00Z,27.1690,-82.9260,4.0,140.19442890773,7.8102496759067,-99999.0,'1111122,1111122,1199999999' 
COMPS,ioos:station:USF.COMPS:C10:1,2012-11-05T20:00:00Z,27.1690,-82.9260,4.0,156.03751102542,9.8488578017961,-99999.0,'1111122,1111122,1199999999' 
COMPS,ioos:station:USF.COMPS:C10:1,2012-11-05T21:00:00Z,27.1690,-82.9260,4.0,180.0,8.0,-99999.0,'1111122,1111122,1199999999' 
COMPS,ioos:station:USF.COMPS:C10:1,2012-11-05T22:00:00Z,27.1690,-82.9260,4.0,161.56505117708,9.4868329805051,-99999.0,'1111122,1111122,1199999999' 
COMPS,ioos:station:USF.COMPS:C10:1,2012-11-05T23:00:00Z,27.1690,-82.9260,4.0,180.0,7.0,-99999.0,'1111122,1111122,1199999999' 
COMPS,ioos:station:USF.COMPS:C10:1,2012-11-06T01:00:00Z,27.1690,-82.9260,4.0,180.0,6.0,-99999.0,'1111122,1111122,1199999999' 
COMPS,ioos:station:USF.COMPS:C10:1,2012-11-06T02:00:00Z,27.1690,-82.9260,4.0,180.0,5.0,-99999.0,'1111122,1111122,1199999999' 
COMPS,ioos:station:USF.COMPS:C10:1,2012-11-06T03:00:00Z,27.1690,-82.9260,4.0,153.43494882292,2.2360679774998,-99999.0,'1111122,1111122,1199999999' 
COMPS,ioos:station:USF.COMPS:C10:1,2012-11-06T04:00:00Z,27.1690,-82.9260,4.0,146.30993247402,3.605551275464,-99999.0,'1111122,1111122,1199999999' 
COMPS,ioos:station:USF.COMPS:C10:1,2012-11-06T05:00:00Z,27.1690,-82.9260,4.0,135.0,2.8284271247462,-99999.0,'1111122,1111122,1199999999' 
COMPS,ioos:station:USF.COMPS:C10:1,2012-11-06T06:00:00Z,27.1690,-82.9260,4.0,126.86989764584,5.0,-99999.0,'1111122,1111122,1199999999' 
COMPS,ioos:station:USF.COMPS:C10:1,2012-11-06T07:00:00Z,27.1690,-82.9260,4.0,146.30993247402,7.211102550928,-99999.0,'1111122,1111122,1199999999' 
COMPS,ioos:station:USF.COMPS:C10:1,2012-11-06T08:00:00Z,27.1690,-82.9260,4.0,150.25511870306,8.0622577482985,-99999.0,'1111122,1111122,1199999999' 
COMPS,ioos:station:USF.COMPS:C10:1,2012-11-06T09:00:00Z,27.1690,-82.9260,4.0,171.86989764584,7.0710678118655,-99999.0,'1111122,1111122,1199999999' 
COMPS,ioos:station:USF.COMPS:C10:1,2012-11-06T10:00:00Z,27.1690,-82.9260,4.0,158.19859051365,5.3851648071345,-99999.0,'1111122,1111122,1199999999' 
COMPS,ioos:station:USF.COMPS:C10:1,2012-11-06T11:00:00Z,27.1690,-82.9260,4.0,180.0,8.0,-99999.0,'1111122,1111122,1199999999' 
COMPS,ioos:station:USF.COMPS:C10:1,2012-11-06T12:00:00Z,27.1690,-82.9260,4.0,180.0,8.0,-99999.0,'1111122,1111122,1199999999' 
COMPS,ioos:station:USF.COMPS:C10:1,2012-11-06T13:00:00Z,27.1690,-82.9260,4.0,194.03624346793,4.1231056256177,-99999.0,'1111122,1111122,1199999999' 
COMPS,ioos:station:USF.COMPS:C10:1,2012-11-06T14:00:00Z,27.1690,-82.9260,4.0,258.69006752598,5.0990195135928,-99999.0,'1111122,1111122,1199999999' 
COMPS,ioos:station:USF.COMPS:C10:1,2012-11-06T15:00:00Z,27.1690,-82.9260,4.0,270.0,1.0,-99999.0,'1113322,1111122,1199999999' 
COMPS,ioos:station:USF.COMPS:C10:1,2012-11-06T16:00:00Z,27.1690,-82.9260,4.0,296.56505117708,2.2360679774998,-99999.0,'1111122,1111122,1199999999' 
COMPS,ioos:station:USF.COMPS:C10:1,2012-11-06T17:00:00Z,27.1690,-82.9260,4.0,90.0,2.0,-99999.0,'1111122,1111122,1199999999' 
COMPS,ioos:station:USF.COMPS:C10:1,2012-11-06T18:00:00Z,27.1690,-82.9260,4.0,45.0,2.8284271247462,-99999.0,'1111122,1111122,1199999999' 
COMPS,ioos:station:USF.COMPS:C10:1,2012-11-06T19:00:00Z,27.1690,-82.9260,4.0,83.65980825409,9.0553851381374,-99999.0,'1111122,1111122,1199999999' 
COMPS,ioos:station:USF.COMPS:C10:1,2012-11-06T20:00:00Z,27.1690,-82.9260,4.0,90.0,10.0,-99999.0,'1111122,1111122,1199999999' 
COMPS,ioos:station:USF.COMPS:C10:1,2012-11-06T21:00:00Z,27.1690,-82.9260,4.0,104.03624346793,8.2462112512353,-99999.0,'1111122,1111122,1199999999' 
COMPS,ioos:station:USF.COMPS:C10:1,2012-11-06T22:00:00Z,27.1690,-82.9260,4.0,116.56505117708,6.7082039324994,-99999.0,'1111122,1111122,1199999999' 
COMPS,ioos:station:USF.COMPS:C10:1,2012-11-06T23:00:00Z,27.1690,-82.9260,4.0,135.0,7.0710678118655,-99999.0,'1111122,1111122,1199999999' 
COMPS,ioos:station:USF.COMPS:C10:1,2012-11-07T00:00:00Z,27.1690,-82.9260,4.0,141.34019174591,6.4031242374328,-99999.0,'1111122,1111122,1199999999' 
COMPS,ioos:station:USF.COMPS:C10:1,2012-11-07T01:00:00Z,27.1690,-82.9260,4.0,141.34019174591,6.4031242374328,-99999.0,'1111122,1111122,1199999999' 
COMPS,ioos:station:USF.COMPS:C10:1,2012-11-07T02:00:00Z,27.1690,-82.9260,4.0,156.03751102542,9.8488578017961,-99999.0,'1111122,1111122,1199999999' 
COMPS,ioos:station:USF.COMPS:C10:1,2012-11-07T03:00:00Z,27.1690,-82.9260,4.0,146.30993247402,7.211102550928,-99999.0,'1111122,1111122,1199999999' 
COMPS,ioos:station:USF.COMPS:C10:1,2012-11-07T04:00:00Z,27.1690,-82.9260,4.0,161.56505117708,6.3245553203368,-99999.0,'1111122,1111122,1199999999' 
COMPS,ioos:station:USF.COMPS:C10:1,2012-11-07T05:00:00Z,27.1690,-82.9260,4.0,156.80140948635,7.6157731058639,-99999.0,'1111122,1111122,1199999999' 
COMPS,ioos:station:USF.COMPS:C10:1,2012-11-07T06:00:00Z,27.1690,-82.9260,4.0,155.55604521958,12.083045973595,-99999.0,'1111122,1111122,1199999999' 
COMPS,ioos:station:USF.COMPS:C10:1,2012-11-07T07:00:00Z,27.1690,-82.9260,4.0,140.7105931375,14.212670403552,-99999.0,'1111122,1111122,1199999999' 
COMPS,ioos:station:USF.COMPS:C10:1,2012-11-07T08:00:00Z,27.1690,-82.9260,4.0,143.13010235416,15.0,-99999.0,'1111122,1111122,1199999999' 
COMPS,ioos:station:USF.COMPS:C10:1,2012-11-07T09:00:00Z,27.1690,-82.9260,4.0,135.0,15.556349186104,-99999.0,'1111122,1111122,1199999999' 
COMPS,ioos:station:USF.COMPS:C10:1,2012-11-07T10:00:00Z,27.1690,-82.9260,4.0,154.53665493813,23.259406699226,-99999.0,'1111122,1111122,1199999999' 
COMPS,ioos:station:USF.COMPS:C10:1,2012-11-07T11:00:00Z,27.1690,-82.9260,4.0,158.74949449287,19.313207915828,-99999.0,'1111122,1111122,1199999999' 
COMPS,ioos:station:USF.COMPS:C10:1,2012-11-07T12:00:00Z,27.1690,-82.9260,4.0,162.25532837494,26.248809496813,-99999.0,'1111122,1111122,1199999999' 
COMPS,ioos:station:USF.COMPS:C10:1,2012-11-07T13:00:00Z,27.1690,-82.9260,4.0,162.47443162628,19.924858845171,-99999.0,'1111122,1111122,1199999999' 
COMPS,ioos:station:USF.COMPS:C10:1,2012-11-07T14:00:00Z,27.1690,-82.9260,4.0,152.10272896905,19.235384061671,-99999.0,'1111122,1111122,1199999999' 
COMPS,ioos:station:USF.COMPS:C10:1,2012-11-07T15:00:00Z,27.1690,-82.9260,4.0,153.43494882292,22.360679774998,-99999.0,'1111122,1111122,1199999999' 
COMPS,ioos:station:USF.COMPS:C10:1,2012-11-07T16:00:00Z,27.1690,-82.9260,4.0,141.34019174591,25.612496949731,-99999.0,'1111122,1111122,1199999999' 
COMPS,ioos:station:USF.COMPS:C10:1,2012-11-07T17:00:00Z,27.1690,-82.9260,4.0,145.61965527616,23.021728866443,-99999.0,'1111122,1111122,1199999999' 
COMPS,ioos:station:USF.COMPS:C10:1,2012-11-07T18:00:00Z,27.1690,-82.9260,4.0,149.53445508054,19.723082923316,-99999.0,'1111122,1111122,1199999999' 
COMPS,ioos:station:USF.COMPS:C10:1,2012-11-07T19:00:00Z,27.1690,-82.9260,4.0,139.6354634269,26.248809496813,-99999.0,'1111122,1111122,1199999999' 
COMPS,ioos:station:USF.COMPS:C10:1,2012-11-07T20:00:00Z,27.1690,-82.9260,4.0,144.24611274556,30.805843601499,-99999.0,'1111122,1111122,1199999999' 
COMPS,ioos:station:USF.COMPS:C10:1,2012-11-07T21:00:00Z,27.1690,-82.9260,4.0,137.86240522611,28.319604517013,-99999.0,'1111122,1111122,1199999999' 
COMPS,ioos:station:USF.COMPS:C10:1,2012-11-07T22:00:00Z,27.1690,-82.9260,4.0,151.55707137564,27.294688127912,-99999.0,'1111122,1111122,1199999999' 
COMPS,ioos:station:USF.COMPS:C10:1,2012-11-07T23:00:00Z,27.1690,-82.9260,4.0,154.44003482818,25.495097567964,-99999.0,'1111122,1111122,1199999999' 
COMPS,ioos:station:USF.COMPS:C10:1,2012-11-08T00:00:00Z,27.1690,-82.9260,4.0,150.94539590092,30.886890422961,-99999.0,'1111122,1111122,1199999999' 
COMPS,ioos:station:USF.COMPS:C10:1,2012-11-08T01:00:00Z,27.1690,-82.9260,4.0,150.94539590092,30.886890422961,-99999.0,'1111122,1111122,1199999999' 
COMPS,ioos:station:USF.COMPS:C10:1,2012-11-08T02:00:00Z,27.1690,-82.9260,4.0,152.44718842328,25.942243542146,-99999.0,'1111122,1111122,1199999999' 
COMPS,ioos:station:USF.COMPS:C10:1,2012-11-08T03:00:00Z,27.1690,-82.9260,4.0,160.0168934781,23.409399821439,-99999.0,'1111122,1111122,1199999999' 
COMPS,ioos:station:USF.COMPS:C10:1,2012-11-08T04:00:00Z,27.1690,-82.9260,4.0,151.55707137564,27.294688127912,-99999.0,'1111122,1111122,1199999999' 
COMPS,ioos:station:USF.COMPS:C10:1,2012-11-08T05:00:00Z,27.1690,-82.9260,4.0,157.16634582208,20.615528128088,-99999.0,'1111122,1111122,1199999999' 
COMPS,ioos:station:USF.COMPS:C10:1,2012-11-08T06:00:00Z,27.1690,-82.9260,4.0,158.55226367289,30.083217912983,-99999.0,'1111122,1111122,1199999999' 
COMPS,ioos:station:USF.COMPS:C10:1,2012-11-08T07:00:00Z,27.1690,-82.9260,4.0,180.0,21.0,-99999.0,'1111122,1111122,1199999999' 
COMPS,ioos:station:USF.COMPS:C10:1,2012-11-08T08:00:00Z,27.1690,-82.9260,4.0,147.52880770915,26.076809620811,-99999.0,'1111122,1111122,1199999999' 
COMPS,ioos:station:USF.COMPS:C10:1,2012-11-08T09:00:00Z,27.1690,-82.9260,4.0,160.82099197419,24.351591323772,-99999.0,'1111122,1111122,1199999999' 
COMPS,ioos:station:USF.COMPS:C10:1,2012-11-08T10:00:00Z,27.1690,-82.9260,4.0,161.56505117708,22.135943621179,-99999.0,'1111122,1111122,1199999999' 
COMPS,ioos:station:USF.COMPS:C10:1,2012-11-08T11:00:00Z,27.1690,-82.9260,4.0,162.47443162628,19.924858845171,-99999.0,'1111122,1111122,1199999999' 
COMPS,ioos:station:USF.COMPS:C10:1,2012-11-08T12:00:00Z,27.1690,-82.9260,4.0,165.25643716353,19.646882704388,-99999.0,'1111122,1111122,1199999999' 
COMPS,ioos:station:USF.COMPS:C10:1,2012-11-08T13:00:00Z,27.1690,-82.9260,4.0,166.75948008481,17.464249196573,-99999.0,'1111122,1111122,1199999999' 
COMPS,ioos:station:USF.COMPS:C10:1,2012-11-08T14:00:00Z,27.1690,-82.9260,4.0,174.80557109227,22.090722034375,-99999.0,'1111122,1111122,1199999999' 
COMPS,ioos:station:USF.COMPS:C10:1,2012-11-08T15:00:00Z,27.1690,-82.9260,4.0,180.0,23.0,-99999.0,'1111122,1111122,1199999999' 
COMPS,ioos:station:USF.COMPS:C10:1,2012-11-08T16:00:00Z,27.1690,-82.9260,4.0,180.0,22.0,-99999.0,'1111122,1111122,1199999999' 
COMPS,ioos:station:USF.COMPS:C10:1,2012-11-08T17:00:00Z,27.1690,-82.9260,4.0,180.0,22.0,-99999.0,'1111122,1111122,1199999999' 
COMPS,ioos:station:USF.COMPS:C10:1,2012-11-08T18:00:00Z,27.1690,-82.9260,4.0,165.25643716353,19.646882704388,-99999.0,'1111122,1111122,1199999999' 
COMPS,ioos:station:USF.COMPS:C10:1,2012-11-08T19:00:00Z,27.1690,-82.9260,4.0,150.64224645721,18.357559750686,-99999.0,'1111122,1111122,1199999999' 
COMPS,ioos:station:USF.COMPS:C10:1,2012-11-08T20:00:00Z,27.1690,-82.9260,4.0,147.09475707701,20.248456731317,-99999.0,'1111122,1111122,1199999999' 
COMPS,ioos:station:USF.COMPS:C10:1,2012-11-08T21:00:00Z,27.1690,-82.9260,4.0,162.34987578007,23.08679276123,-99999.0,'1111122,1111122,1199999999' 
COMPS,ioos:station:USF.COMPS:C10:1,2012-11-08T22:00:00Z,27.1690,-82.9260,4.0,152.24145939894,21.470910553584,-99999.0,'1111122,1111122,1199999999' 
COMPS,ioos:station:USF.COMPS:C10:1,2012-11-08T23:00:00Z,27.1690,-82.9260,4.0,151.18920625703,22.825424421027,-99999.0,'1111122,1111122,1199999999' 
COMPS,ioos:station:USF.COMPS:C10:1,2012-11-09T01:00:00Z,27.1690,-82.9260,4.0,161.56505117708,18.97366596101,-99999.0,'1111122,1111122,1199999999' 
COMPS,ioos:station:USF.COMPS:C10:1,2012-11-09T02:00:00Z,27.1690,-82.9260,4.0,165.96375653207,16.492422502471,-99999.0,'1111122,1111122,1199999999' 
COMPS,ioos:station:USF.COMPS:C10:1,2012-11-09T03:00:00Z,27.1690,-82.9260,4.0,169.38034472384,16.2788205961,-99999.0,'1111122,1111122,1199999999' 
COMPS,ioos:station:USF.COMPS:C10:1,2012-11-09T04:00:00Z,27.1690,-82.9260,4.0,180.0,14.0,-99999.0,'1111122,1111122,1199999999' 